Location: Boiro
(42.6475°N, 8.8834°W)
Time: 12:44:42
(UTC+02:00)

deb Agena D - Pass Details

Date: 10 July 2022
Orbit: 997 x 1025 km, 100.1° (Epoch: 16 August)

Event Time Altitude Azimuth Distance (km) Brightness Sun altitude
Exits shadow 00:55:43 28° 117° (ESE) 1,802 ? -20.7°
Maximum altitude 00:58:30 44° 66° (ENE) 1,389 ? -20.9°
Drops below altitude 10° 01:04:27 10° 357° (N) 2,826 ? -21.4°
Sets 01:07:03 0° 351° (N) 3,779 ? -21.6°
